Weather History for KD55 - July, 2013

Change the Weather History Date:

Monday, July 22, 2013

  Actual Average (KDVL) Record (KDVL)
Temperature  
Mean Temperature 57 °F -  
Max Temperature 66 °F 79 °F 95 °F (1988)
Min Temperature 48 °F 57 °F 45 °F (1968)
Degree Days  
Heating Degree Days 8    
Growing Degree Days 7 (Base 50)    
Moisture  
Dew Point 44 °F    
Average Humidity 56    
Maximum Humidity 59    
Minimum Humidity 52    
Precipitation  
Precipitation 0.00 in - - ()
Sea Level Pressure  
Sea Level Pressure 29.83 in    
Wind  
Wind Speed 12 mph (NNW)    
Max Wind Speed 18 mph    
Max Gust Speed 25 mph    
Visibility 10 miles    
Events      
Averages and records for this station are not official NWS values.
T = Trace of Precipitation, MM = Missing Value Source: NWS Daily Summary

Daily Weather History Graph

Daily Weather History Graph

Search for Another Location

Airport or City:

Trip Planner

Search our weather history database for the weather conditions in past years. The results will help you decide how hot, cold, wet, or windy it might be!

Date:

Astronomy

Jul. 22, 2013 Rise Set
Actual Time 5:54 AM CDT 9:24 PM CDT
Civil Twilight 5:15 AM CDT 10:03 PM CDT
Nautical Twilight 4:23 AM CDT 10:55 PM CDT
Astronomical Twilight 3:12 AM CDT 12:04 AM CDT
Moon 9:02 PM CDT (7/22) 5:58 AM CDT (7/22)
Length of Visible Light 16h 47m
Length of Day
15h 29m
Full, 100% of the Moon is Illuminated
Jul 22
Full
Jul 22
Full
Jul 29
Last Quarter
Aug 6
New
Aug 14
First Quarter

Hourly Weather History & Observations

Time (CDT) Temp. Dew Point Humidity Pressure Visibility Wind Dir Wind Speed Gust Speed Precip Events Conditions
12:15 AM 59.0 °F 42.8 °F 55% 29.65 in 10.0 mi SW 5.8 mph - N/A   Clear
12:35 AM 57.2 °F 41.0 °F 55% 29.66 in 10.0 mi SW 6.9 mph - N/A   Clear
12:55 AM 57.2 °F 42.8 °F 59% 29.65 in 10.0 mi WSW 6.9 mph - N/A   Clear
1:15 AM 59.0 °F 42.8 °F 55% 29.65 in 10.0 mi West 8.1 mph - N/A   Clear
1:35 AM 59.0 °F 42.8 °F 55% 29.66 in 10.0 mi WNW 9.2 mph - N/A   Clear
1:55 AM 59.0 °F 44.6 °F 59% 29.66 in 10.0 mi WNW 11.5 mph - N/A   Clear
2:15 AM 59.0 °F 44.6 °F 59% 29.66 in 10.0 mi WNW 9.2 mph - N/A   Clear
2:35 AM 59.0 °F 44.6 °F 59% 29.67 in 10.0 mi WNW 11.5 mph 17.3 mph N/A   Clear
2:55 AM 59.0 °F 44.6 °F 59% 29.67 in 10.0 mi NW 15.0 mph - N/A   Clear
3:15 AM 59.0 °F 42.8 °F 55% 29.67 in 10.0 mi NW 15.0 mph 20.7 mph N/A   Clear
3:35 AM 59.0 °F 42.8 °F 55% 29.67 in 10.0 mi WNW 17.3 mph 23.0 mph N/A   Clear
3:55 AM 57.2 °F 42.8 °F 59% 29.68 in 10.0 mi NW 16.1 mph - N/A   Partly Cloudy
4:15 AM 57.2 °F 41.0 °F 55% 29.68 in 10.0 mi NW 15.0 mph 20.7 mph N/A   Mostly Cloudy
4:35 AM 57.2 °F 42.8 °F 59% 29.69 in 10.0 mi NW 16.1 mph - N/A   Overcast
4:55 AM 57.2 °F 41.0 °F 55% 29.70 in 10.0 mi NW 16.1 mph 20.7 mph N/A   Overcast
5:15 AM 57.2 °F 41.0 °F 55% 29.70 in 10.0 mi NW 16.1 mph 24.2 mph N/A   Mostly Cloudy
5:35 AM 57.2 °F 41.0 °F 55% 29.71 in 10.0 mi NW 15.0 mph 20.7 mph N/A   Scattered Clouds
5:55 AM 57.2 °F 41.0 °F 55% 29.72 in 10.0 mi NNW 12.7 mph 21.9 mph N/A   Overcast
6:15 AM 57.2 °F 41.0 °F 55% 29.73 in 10.0 mi NNW 10.4 mph - N/A   Overcast
6:35 AM 57.2 °F 41.0 °F 55% 29.74 in 10.0 mi North 13.8 mph 18.4 mph N/A   Overcast
6:55 AM 57.2 °F 41.0 °F 55% 29.75 in 10.0 mi NNW 18.4 mph 25.3 mph N/A   Overcast
7:15 AM 57.2 °F 41.0 °F 55% 29.75 in 10.0 mi North 13.8 mph 24.2 mph N/A   Overcast
7:35 AM 57.2 °F 41.0 °F 55% 29.76 in 10.0 mi NW 15.0 mph 20.7 mph N/A   Mostly Cloudy
7:55 AM 57.2 °F 41.0 °F 55% 29.77 in 10.0 mi NNW 13.8 mph 19.6 mph N/A   Mostly Cloudy
8:55 AM 59.0 °F 42.8 °F 55% 29.80 in 10.0 mi NNW 18.4 mph 25.3 mph N/A   Overcast
9:55 AM 60.8 °F 44.6 °F 55% 29.81 in 10.0 mi North 17.3 mph 24.2 mph N/A   Scattered Clouds
10:15 AM 60.8 °F 44.6 °F 55% 29.82 in 10.0 mi NNW 18.4 mph 21.9 mph N/A   Scattered Clouds
10:35 AM 62.6 °F 46.4 °F 55% 29.82 in 10.0 mi NNW 18.4 mph 23.0 mph N/A   Scattered Clouds
10:55 AM 62.6 °F 46.4 °F 55% 29.83 in 10.0 mi NNW 16.1 mph 21.9 mph N/A   Mostly Cloudy
11:15 AM 64.4 °F 48.2 °F 56% 29.84 in 10.0 mi NNW 13.8 mph 24.2 mph N/A   Scattered Clouds
11:35 AM 64.4 °F 48.2 °F 56% 29.84 in 10.0 mi North 16.1 mph 19.6 mph N/A   Scattered Clouds
11:55 AM 62.6 °F 46.4 °F 55% 29.85 in 10.0 mi NNW 16.1 mph 25.3 mph N/A   Mostly Cloudy
12:15 PM 62.6 °F 46.4 °F 55% 29.86 in 10.0 mi NNW 16.1 mph - N/A   Overcast
12:35 PM 62.6 °F 46.4 °F 55% 29.86 in 10.0 mi North 16.1 mph 19.6 mph N/A   Overcast
12:55 PM 64.4 °F 46.4 °F 52% 29.86 in 10.0 mi NNW 16.1 mph - N/A   Overcast
1:15 PM 64.4 °F 48.2 °F 56% 29.87 in 10.0 mi NNW 16.1 mph 21.9 mph N/A   Overcast
1:35 PM 64.4 °F 48.2 °F 56% 29.87 in 10.0 mi NNW 15.0 mph - N/A   Overcast
1:55 PM 64.4 °F 48.2 °F 56% 29.88 in 10.0 mi North 15.0 mph 19.6 mph N/A   Overcast
2:15 PM 62.6 °F 46.4 °F 55% 29.88 in 10.0 mi NNW 15.0 mph - N/A   Overcast
2:35 PM 62.6 °F 46.4 °F 55% 29.89 in 10.0 mi NNW 13.8 mph 19.6 mph N/A   Overcast
2:55 PM 64.4 °F 48.2 °F 56% 29.89 in 10.0 mi North 18.4 mph - N/A   Overcast
3:15 PM 64.4 °F 48.2 °F 56% 29.90 in 10.0 mi North 13.8 mph - N/A   Overcast
3:35 PM 64.4 °F 48.2 °F 56% 29.90 in 10.0 mi North 12.7 mph 21.9 mph N/A   Overcast
3:55 PM 64.4 °F 48.2 °F 56% 29.91 in 10.0 mi North 12.7 mph - N/A   Overcast
4:15 PM 64.4 °F 48.2 °F 56% 29.91 in 10.0 mi North 15.0 mph - N/A   Overcast
4:35 PM 66.2 °F 48.2 °F 52% 29.91 in 10.0 mi NNW 17.3 mph 21.9 mph N/A   Overcast
4:55 PM 64.4 °F 48.2 °F 56% 29.91 in 10.0 mi North 11.5 mph - N/A   Overcast
5:15 PM 64.4 °F 48.2 °F 56% 29.91 in 10.0 mi North 10.4 mph - N/A   Overcast
5:35 PM 66.2 °F 50.0 °F 56% 29.91 in 10.0 mi North 13.8 mph - N/A   Mostly Cloudy
5:55 PM 64.4 °F 48.2 °F 56% 29.92 in 10.0 mi North 11.5 mph - N/A   Overcast
6:15 PM 64.4 °F 48.2 °F 56% 29.92 in 10.0 mi North 8.1 mph - N/A   Overcast
6:35 PM 66.2 °F 50.0 °F 56% 29.92 in 10.0 mi North 13.8 mph 19.6 mph N/A   Mostly Cloudy
6:55 PM 64.4 °F 48.2 °F 56% 29.92 in 10.0 mi North 13.8 mph - N/A   Mostly Cloudy
7:15 PM 64.4 °F 46.4 °F 52% 29.93 in 10.0 mi NNE 9.2 mph - N/A   Mostly Cloudy
7:35 PM 62.6 °F 46.4 °F 55% 29.93 in 10.0 mi NNE 10.4 mph - N/A   Mostly Cloudy
7:55 PM 62.6 °F 46.4 °F 55% 29.93 in 10.0 mi North 11.5 mph - N/A   Partly Cloudy
8:15 PM 62.6 °F 46.4 °F 55% 29.93 in 10.0 mi NNE 10.4 mph - N/A   Clear
8:35 PM 60.8 °F 44.6 °F 55% 29.94 in 10.0 mi North 6.9 mph - N/A   Clear
8:55 PM 59.0 °F 42.8 °F 55% 29.94 in 10.0 mi North 8.1 mph - N/A   Clear
9:15 PM 57.2 °F 41.0 °F 55% 29.95 in 10.0 mi North 6.9 mph - N/A   Clear
9:35 PM 55.4 °F 39.2 °F 54% 29.95 in 10.0 mi NNE 5.8 mph - N/A   Clear
9:55 PM 55.4 °F 39.2 °F 54% 29.95 in 10.0 mi NNE 4.6 mph - N/A   Clear
10:15 PM 53.6 °F 37.4 °F 54% 29.95 in 10.0 mi North 3.5 mph - N/A   Clear
10:35 PM 50.0 °F 35.6 °F 58% 29.97 in 10.0 mi WNW 3.5 mph - N/A   Clear
10:55 PM 48.2 °F 32.0 °F 54% 29.98 in 10.0 mi WNW 5.8 mph - N/A   Clear
11:15 PM 50.0 °F 35.6 °F 58% 29.98 in 10.0 mi NW 3.5 mph - N/A   Clear
11:35 PM 48.2 °F 32.0 °F 54% 29.99 in 10.0 mi NW 4.6 mph - N/A   Clear
11:55 PM 48.2 °F 32.0 °F 54% 29.99 in 10.0 mi NNW 5.8 mph - N/A   Clear